When you browse on this site, cookies collect data to enhance your experience and personalize the content and advertising you see.
Visit our Privacy Policy to learn more. By continuing to use the site, you agree to this use of cookies and data.
  • En España
  • Lista de países
  • Para 7 días
  • Temperatura del agua
  • Mapa Satelital
  • El tiempo en el mapa
  • Informadores
  • user-avatar
    Iniciar sesión

    Tiempo cada hora Borovec

    Hoy, 18 Enero, Viernes

    Tiempo Temperatura Precipitaciones Viento Presión Humedad
    00:00 +1°C° 0 mm 1 mps 709 mmHg 72%
    01:00 0°C° 0 mm 1 mps 709 mmHg 71%
    02:00 -2°C° 0 mm 2 mps 709 mmHg 71%
    03:00 -2°C° 0 mm 2 mps 709 mmHg 70%
    04:00 0°C° 0 mm 1 mps 709 mmHg 70%
    05:00 0°C° 0 mm 1 mps 709 mmHg 69%
    06:00 0°C° 0 mm 1 mps 709 mmHg 69%
    07:00 -1°C° 0 mm 1 mps 709 mmHg 69%
    08:00 -2°C° 0 mm 2 mps 709 mmHg 68%
    09:00 +1°C° 0 mm 1 mps 709 mmHg 68%
    10:00 +3°C° 0 mm 1 mps 709 mmHg 68%
    11:00 +4°C° 0 mm 1 mps 710 mmHg 67%
    12:00 +5°C° 0 mm 1 mps 709 mmHg 68%
    13:00 +6°C° 0 mm 1 mps 709 mmHg 68%
    14:00 +6°C° 0 mm 1 mps 709 mmHg 69%
    15:00 +5°C° 0 mm 1 mps 709 mmHg 71%
    16:00 +4°C° 0 mm 1 mps 709 mmHg 74%
    17:00 +3°C° 0 mm 1 mps 709 mmHg 76%
    18:00 +3°C° 0 mm 1 mps 709 mmHg 78%
    19:00 +2°C° 0 mm 1 mps 709 mmHg 79%
    20:00 +2°C° 0 mm 1 mps 709 mmHg 81%
    21:00 +2°C° 0 mm 1 mps 709 mmHg 81%
    22:00 +2°C° 0 mm 1 mps 709 mmHg 82%
    23:00 +2°C° 0 mm 1 mps 709 mmHg 83%

    Mañana, 19 Enero, Sábado

    Tiempo Temperatura Precipitaciones Viento Presión Humedad
    00:00 +2°C° 0 mm 1 mps 710 mmHg 83%
    01:00 +2°C° 0 mm 1 mps 710 mmHg 84%
    02:00 +2°C° 0 mm 1 mps 710 mmHg 84%
    03:00 +2°C° 0.1 mm 1 mps 710 mmHg 85%
    04:00 +2°C° 0.1 mm 1 mps 710 mmHg 86%
    05:00 +2°C° 0.1 mm 1 mps 710 mmHg 87%
    06:00 +2°C° 0.1 mm 1 mps 710 mmHg 88%
    07:00 +1°C° 0.1 mm 0 mps 711 mmHg 89%
    08:00 +1°C° 0.1 mm 0 mps 711 mmHg 90%
    09:00 +2°C° 0.1 mm 0 mps 711 mmHg 88%
    10:00 +3°C° 0.1 mm 0 mps 711 mmHg 85%
    11:00 +4°C° 0.1 mm 0 mps 712 mmHg 83%
    12:00 +5°C° 0 mm 0 mps 712 mmHg 82%
    13:00 +6°C° 0 mm 1 mps 712 mmHg 81%
    14:00 +7°C° 0 mm 1 mps 711 mmHg 80%
    15:00 +6°C° 0 mm 1 mps 711 mmHg 83%
    16:00 +5°C° 0 mm 1 mps 711 mmHg 86%
    17:00 +4°C° 0 mm 1 mps 711 mmHg 90%
    18:00 +3°C° 0 mm 1 mps 711 mmHg 90%
    19:00 +3°C° 0 mm 1 mps 711 mmHg 90%
    20:00 +2°C° 0 mm 1 mps 711 mmHg 91%
    21:00 +2°C° 0 mm 1 mps 711 mmHg 90%
    22:00 +1°C° 0 mm 1 mps 711 mmHg 90%
    23:00 +1°C° 0 mm 1 mps 711 mmHg 90%

    Pasado mañana, 20 Enero, Domingo

    Tiempo Temperatura Precipitaciones Viento Presión Humedad
    00:00 +1°C° 0 mm 1 mps 711 mmHg 91%
    01:00 +1°C° 0 mm 1 mps 711 mmHg 91%
    02:00 +1°C° 0 mm 1 mps 711 mmHg 91%
    03:00 +1°C° 0 mm 1 mps 711 mmHg 92%
    04:00 +1°C° 0 mm 1 mps 710 mmHg 92%
    05:00 +1°C° 0 mm 1 mps 710 mmHg 92%
    06:00 +1°C° 0 mm 1 mps 710 mmHg 92%
    07:00 +1°C° 0 mm 1 mps 710 mmHg 92%
    08:00 +1°C° 0 mm 1 mps 710 mmHg 92%
    09:00 +3°C° 0 mm 1 mps 710 mmHg 89%
    10:00 +4°C° 0 mm 1 mps 710 mmHg 87%
    11:00 +5°C° 0 mm 1 mps 710 mmHg 84%
    12:00 +6°C° 0 mm 1 mps 710 mmHg 83%
    13:00 +7°C° 0 mm 1 mps 709 mmHg 81%
    14:00 +7°C° 0 mm 1 mps 709 mmHg 80%
    15:00 +6°C° 0 mm 1 mps 709 mmHg 83%
    16:00 +5°C° 0 mm 0 mps 708 mmHg 86%
    17:00 +4°C° 0 mm 0 mps 708 mmHg 90%
    18:00 +3°C° 0.2 mm 0 mps 708 mmHg 90%
    19:00 +4°C° 0.2 mm 1 mps 708 mmHg 91%
    20:00 +4°C° 0.2 mm 1 mps 709 mmHg 92%
    21:00 +3°C° 0 mm 1 mps 709 mmHg 92%
    22:00 +3°C° 0 mm 1 mps 709 mmHg 92%
    23:00 +3°C° 0 mm 1 mps 709 mmHg 92%

    21 Enero, Lunes

    Tiempo Temperatura Precipitaciones Viento Presión Humedad
    00:00 +3°C° 0 mm 1 mps 709 mmHg 92%
    01:00 +2°C° 0 mm 1 mps 709 mmHg 92%
    02:00 +2°C° 0 mm 1 mps 709 mmHg 92%
    03:00 +2°C° 0 mm 1 mps 709 mmHg 92%
    04:00 +2°C° 0 mm 1 mps 709 mmHg 93%
    05:00 +1°C° 0 mm 1 mps 709 mmHg 93%
    06:00 +1°C° 0 mm 1 mps 709 mmHg 93%
    07:00 +1°C° 0 mm 1 mps 710 mmHg 94%
    08:00 +1°C° 0 mm 1 mps 710 mmHg 94%
    09:00 +2°C° 0 mm 1 mps 711 mmHg 91%
    10:00 +3°C° 0 mm 1 mps 711 mmHg 88%
    11:00 +4°C° 0 mm 1 mps 711 mmHg 84%
    12:00 +4°C° 0 mm 1 mps 711 mmHg 83%
    13:00 +4°C° 0 mm 1 mps 711 mmHg 81%
    14:00 +4°C° 0 mm 2 mps 711 mmHg 80%
    15:00 +4°C° 0 mm 1 mps 711 mmHg 83%
    16:00 +3°C° 0 mm 1 mps 711 mmHg 85%
    17:00 +2°C° 0 mm 1 mps 711 mmHg 88%
    18:00 +2°C° 0 mm 1 mps 712 mmHg 89%
    19:00 +1°C° 0 mm 1 mps 712 mmHg 91%
    20:00 -1°C° 0 mm 0 mps 713 mmHg 92%
    21:00 -1°C° 0 mm 0 mps 713 mmHg 92%
    22:00 -1°C° 0 mm 0 mps 713 mmHg 92%
    23:00 -1°C° 0 mm 0 mps 713 mmHg 93%

    22 Enero, Martes

    Tiempo Temperatura Precipitaciones Viento Presión Humedad
    00:00 0°C° 0 mm 1 mps 713 mmHg 93%
    01:00 0°C° 0 mm 1 mps 713 mmHg 93%
    02:00 +1°C° 0 mm 1 mps 713 mmHg 93%
    03:00 +1°C° 0 mm 1 mps 713 mmHg 93%
    04:00 0°C° 0 mm 1 mps 713 mmHg 94%
    05:00 0°C° 0 mm 1 mps 713 mmHg 94%
    06:00 +1°C° 0 mm 1 mps 712 mmHg 94%
    07:00 +1°C° 0 mm 1 mps 712 mmHg 94%
    08:00 +1°C° 0 mm 1 mps 712 mmHg 93%
    09:00 +1°C° 0 mm 2 mps 712 mmHg 89%
    10:00 +1°C° 0 mm 2 mps 712 mmHg 84%
    11:00 +2°C° 0 mm 2 mps 712 mmHg 80%
    12:00 +3°C° 0 mm 2 mps 711 mmHg 78%
    13:00 +3°C° 0 mm 2 mps 711 mmHg 77%
    14:00 +4°C° 0 mm 2 mps 710 mmHg 75%
    15:00 +3°C° 0 mm 2 mps 709 mmHg 79%
    16:00 +3°C° 0 mm 2 mps 709 mmHg 82%
    17:00 +2°C° 0 mm 2 mps 708 mmHg 86%
    18:00 +1°C° 0 mm 2 mps 708 mmHg 88%
    19:00 +1°C° 0 mm 2 mps 707 mmHg 90%
    20:00 -1°C° 0 mm 2 mps 707 mmHg 92%
    21:00 -1°C° 0 mm 2 mps 706 mmHg 92%
    22:00 -1°C° 0 mm 2 mps 705 mmHg 92%
    23:00 -1°C° 0 mm 2 mps 705 mmHg 91%

    23 Enero, Miércoles

    Tiempo Temperatura Precipitaciones Viento Presión Humedad
    00:00 -1°C° 0 mm 2 mps 704 mmHg 91%
    01:00 -1°C° 0 mm 2 mps 703 mmHg 91%
    02:00 -1°C° 0 mm 2 mps 702 mmHg 91%
    03:00 +1°C° 0 mm 2 mps 701 mmHg 91%
    04:00 +1°C° 0 mm 2 mps 701 mmHg 91%
    05:00 +1°C° 0 mm 2 mps 700 mmHg 91%
    06:00 +1°C° 0 mm 2 mps 699 mmHg 91%
    07:00 +1°C° 0 mm 2 mps 699 mmHg 92%
    08:00 +1°C° 0 mm 2 mps 698 mmHg 92%
    09:00 +2°C° 0 mm 2 mps 698 mmHg 89%
    10:00 +2°C° 0 mm 3 mps 698 mmHg 85%
    11:00 +4°C° 0 mm 3 mps 698 mmHg 81%
    12:00 +4°C° 0 mm 3 mps 697 mmHg 77%
    13:00 +5°C° 0 mm 4 mps 696 mmHg 73%
    14:00 +6°C° 0 mm 4 mps 696 mmHg 69%
    15:00 +5°C° 0 mm 4 mps 695 mmHg 72%
    16:00 +4°C° 0 mm 3 mps 695 mmHg 75%
    17:00 +4°C° 0 mm 2 mps 695 mmHg 79%
    18:00 +3°C° 0 mm 2 mps 695 mmHg 81%
    19:00 +3°C° 0 mm 2 mps 695 mmHg 83%
    20:00 +2°C° 0 mm 2 mps 695 mmHg 85%
    21:00 +2°C° 0 mm 2 mps 695 mmHg 85%
    22:00 +2°C° 0 mm 2 mps 694 mmHg 84%
    23:00 +2°C° 0 mm 2 mps 694 mmHg 84%
    Mostrar más